[[{"header":{"parameterUnit":"m.s-1","parameterCategory":1,"la1":30.2991,"la2":30.254,"lo1":-89.0895,"lo2":-89.0444,"dy":0.0017,"dx":0.0017,"nx":28,"ny":28,"refTime":"2024-12-18T09:00:00:Z","depth":0,"parameterNumber":2,"parameterNumberName":"U-component_of_WINDS"},"data":[0,0,0,0,0,0,0,0,0,0,0,0,0,0,0,0,0,0,0,0,0,0,0,0,0,0,0,0,0,0,0,0,0,0,0,0,0,0,0,0,0,0,0,0,0,0,0,0,0,0,0,0,0,0,0,0,0,0,0.6895,0.6896,0,0.7029,0.7031,0.7032,0.7024,0.7022,0.702,0.7018,0.7159,0.7164,0.717,0,0,0,0,0,0,0,0,0,0,0,0,0,0.6636,0.6641,0.6895,0.6896,0.6898,0.7029,0.7031,0.7033,0.7024,0.7022,0.7019,0.7017,0.7157,0.7164,0.717,0,0,0,0,0,0,0,0,0,0,0,0,0,0.6758,0.6643,0.6894,0.691,0.6912,0.7028,0.7031,0.7033,0.7025,0.7022,0.7019,0.7016,0.7155,0.7163,0.7171,0.7282,0,0,0.7197,0.72,0,0,0,0,0,0,0,0,0.6751,0.6767,0.6906,0.6909,0.6912,0.7007,0.6991,0.7117,0.7025,0.6982,0.7018,0.7015,0.7111,0.7123,0.7154,0.7289,0.7295,0.7198,0.7203,0.7206,0.7209,0,0,0,0,0,0,0,0.6742,0.6761,0.6948,0.6908,0.6912,0.6911,0.6925,0.7015,0.7062,0.6986,0.6985,0.7001,0.7112,0.7146,0.7158,0.7297,0.7197,0.7205,0.721,0.7213,0.7532,0.7535,0,0,0,0,0,0,0.673,0.6754,0.6944,0.6952,0.6822,0.6919,0.6934,0.6979,0.706,0.707,0.7004,0.7,0.7133,0.7148,0.7163,0.73,0.7206,0.7214,0.7219,0.7529,0.7533,0.7537,0,0,0,0,0,0,0.6724,0.6747,0.6938,0.6853,0.6877,0.6926,0.6977,0.6984,0.7018,0.7074,0.7083,0.703,0.7132,0.7151,0.7253,0.7305,0.7218,0.7225,0.7525,0.753,0.7535,0.7574,0,0,0,0,0,0,0.6717,0.6745,0.6786,0.6854,0.6882,0.7025,0.698,0.6988,0.7032,0.7029,0.7101,0.711,0.7131,0.724,0.7261,0.7314,0.7232,0.752,0.7527,0.7533,0.7568,0.758,0.7589,0,0,0,0,0,0.6708,0.6792,0.6788,0.6811,0.6934,0.7028,0.7044,0.7065,0.7036,0.7079,0.7116,0.7108,0.7295,0.7251,0.7274,0.7331,0.7517,0.7525,0.7533,0.7563,0.7577,0.7589,0,0,0,0,0,0,0.6729,0.6801,0.6798,0.6906,0.6961,0.7026,0.7081,0.7079,0.7144,0.7139,0.7164,0.718,0.7283,0.7317,0.7266,0.7444,0.7403,0.7415,0.7418,0.7432,0.7442,0.7433,0.7239,0,0,0,0,0,0.6746,0.6815,0.6874,0.6964,0.6992,0.7032,0.7073,0.7085,0.7143,0.7167,0.7211,0.7269,0.7341,0.7388,0.7457,0.7573,0.759,0.7624,0.7634,0.7643,0.7654,0.772,0.7737,0.7562,0.7562,0.7562,0,0,0.6783,0.6831,0.6872,0.697,0.7014,0.7086,0.7051,0.7129,0.7183,0.7179,0.7278,0.7313,0.738,0.7489,0.754,0.7521,0.7706,0.7653,0.7659,0.7666,0.773,0.7746,0.7761,0.7567,0.7566,0.7565,0,0,0.6887,0.6929,0.7009,0.7054,0.7121,0.7147,0.7167,0.7233,0.7256,0.7356,0.7355,0.7421,0.7544,0.7593,0.7633,0.7758,0.7755,0.778,0.7836,0.7901,0.7915,0.7927,0.7974,0.799,0.7791,0.7791,0.7791,0,0.6924,0.7031,0.7051,0.713,0.7174,0.7173,0.7257,0.7299,0.7386,0.7418,0.7395,0.7551,0.7596,0.7718,0.7749,0.7781,0.7806,0.7772,0.7911,0.7923,0.7935,0.798,0.7998,0.7794,0.7793,0.7793,0.7793,0,0.7075,0.715,0.7208,0.7291,0.7342,0.7422,0.7456,0.7505,0.7513,0.7543,0.7646,0.77,0.7782,0.7811,0.782,0.7936,0.7923,0.7905,0.7864,0.7954,0.7997,0.8014,0.7798,0.7797,0.7796,0.7795,0,0,0.7196,0.729,0.7311,0.735,0.7425,0.7484,0.7566,0.7645,0.7688,0.7748,0.7819,0.7925,0.7909,0.7956,0.797,0.8026,0.8125,0.8002,0.8004,0.8025,0.826,0.8273,0.8293,0.8122,0.8126,0.8128,0.8255,0,0.7309,0.7452,0.7474,0.7601,0.7672,0.7673,0.7745,0.78,0.783,0.7896,0.793,0.8005,0.7978,0.8007,0.8062,0.8101,0.8173,0.8092,0.8191,0.8194,0.8175,0.8315,0.8329,0.8446,0.8271,0.8274,0.8276,0,0.7459,0.7524,0.7658,0.7726,0.7756,0.782,0.7896,0.7958,0.8022,0.804,0.8093,0.81,0.8188,0.8143,0.8265,0.8209,0.8251,0.8277,0.8282,0.8293,0.8241,0.8332,0.8483,0.8501,0.8302,0.83,0.8298,0,0.7537,0.7657,0.7754,0.7787,0.7867,0.7913,0.7948,0.8009,0.8056,0.8122,0.8154,0.823,0.8272,0.8332,0.8361,0.8325,0.8482,0.8438,0.8502,0.8501,0.8536,0.8533,0.8698,0.856,0.856,0.8559,0.8559,0,0.7661,0.7744,0.779,0.7849,0.7943,0.7968,0.8061,0.8095,0.815,0.8218,0.8223,0.8287,0.8321,0.8391,0.8415,0.8514,0.8532,0.8551,0.8557,0.8552,0.8549,0.858,0.8574,0.8564,0.8563,0.8562,0.8561,0,0.7764,0.7797,0.7903,0.7971,0.799,0.8056,0.8115,0.8175,0.8205,0.8291,0.8313,0.8361,0.8444,0.8479,0.858,0.8596,0.8711,0.8709,0.8689,0.8691,0.8753,0.8748,0.8944,0.8973,0.8814,0.8816,0.8817,0,0.7842,0.7906,0.7981,0.8026,0.8063,0.8137,0.8185,0.8213,0.8263,0.8341,0.8392,0.8474,0.8542,0.8675,0.872,0.8798,0.88,0.8864,0.8812,0.8806,0.8804,0.88,0.8808,0.8874,0.8875,0.8876,0.8877,0,0.7978,0.7992,0.806,0.8136,0.8193,0.8254,0.8314,0.8351,0.8388,0.8445,0.853,0.8582,0.8686,0.8769,0.8851,0.889,0.8892,0.8893,0.8913,0.8909,0.8895,0.8906,0.8717,0.8889,0.8888,0.8887,0.8886,0.8886,0.8072,0.813,0.8192,0.8269,0.8317,0.8373,0.8433,0.8471,0.8541,0.8628,0.864,0.8731,0.8796,0.8905,0.8948,0.9021,0.9005,0.9032,0.9039,0.9046,0.9051,0.8882,0.9035,0.9035,0.9035,0.9035,0.9034,0,0.821,0.8251,0.8321,0.8405,0.8466,0.846,0.8527,0.8579,0.8659,0.8718,0.8785,0.8883,0.8965,0.9016,0.9099,0.9147,0.915,0.9168,0.9166,0.9176,0.9059,0.9035,0.9165,0.9165,0.9165,0.9165,0.9165,0.9165,0.8289,0.8388,0.8409,0.8532,0.8573,0.8661,0.87,0.8753,0.88,0.891,0.8977,0.901,0.9068,0.9154,0.9229,0.9243,0.9274,0.9293,0.9306,0.9197,0.9183,0.917,0.9148,0.9299,0.9299,0.9416,0.9417,0.9418]},{"header":{"parameterUnit":"m.s-1","parameterCategory":1,"la1":30.2991,"la2":30.254,"lo1":-89.0895,"lo2":-89.0444,"dy":0.0017,"dx":0.0017,"nx":28,"ny":28,"refTime":"2024-12-18T09:00:00:Z","depth":0,"parameterNumber":3,"parameterNumberName":"V-component_of_WINDS"},"data":[0,0,0,0,0,0,0,0,0,0,0,0,0,0,0,0,0,0,0,0,0,0,0,0,0,0,0,0,0,0,0,0,0,0,0,0,0,0,0,0,0,0,0,0,0,0,0,0,0,0,0,0,0,0,0,0,0,0,-3.7476,-3.7474,0,-3.7342,-3.7341,-3.7339,-3.7322,-3.7323,-3.7324,-3.7325,-3.7179,-3.7174,-3.7169,0,0,0,0,0,0,0,0,0,0,0,0,0,-3.7707,-3.7703,-3.7476,-3.7474,-3.7472,-3.7343,-3.7341,-3.7339,-3.7321,-3.7323,-3.7324,-3.7326,-3.7181,-3.7175,-3.7169,0,0,0,0,0,0,0,0,0,0,0,0,0,-3.7593,-3.7702,-3.7476,-3.7448,-3.7444,-3.7343,-3.7341,-3.7339,-3.7321,-3.7323,-3.7325,-3.7327,-3.7183,-3.7175,-3.7168,-3.7082,0,0,-3.7145,-3.7141,0,0,0,0,0,0,0,0,-3.76,-3.7585,-3.7454,-3.745,-3.7445,-3.7351,-3.7369,-3.7252,-3.732,-3.7367,-3.7325,-3.7328,-3.7234,-3.7222,-3.7193,-3.7075,-3.7069,-3.7144,-3.7139,-3.7136,-3.7134,0,0,0,0,0,0,0,-3.7608,-3.7591,-3.7423,-3.7452,-3.7447,-3.744,-3.7426,-3.7347,-3.7291,-3.7364,-3.7362,-3.7347,-3.7232,-3.72,-3.7189,-3.7067,-3.7144,-3.7137,-3.7133,-3.713,-3.6874,-3.6872,0,0,0,0,0,0,-3.7622,-3.7597,-3.7427,-3.7419,-3.7529,-3.7434,-3.7419,-3.7379,-3.7292,-3.7281,-3.7345,-3.7347,-3.7212,-3.7198,-3.7184,-3.7079,-3.7136,-3.7129,-3.7124,-3.6876,-3.6873,-3.6871,0,0,0,0,0,0,-3.7627,-3.7607,-3.7432,-3.7508,-3.7485,-3.7428,-3.7384,-3.7375,-3.7344,-3.7279,-3.7268,-3.7324,-3.7213,-3.7195,-3.7109,-3.7073,-3.7125,-3.7118,-3.6879,-3.6875,-3.6872,-3.6867,0,0,0,0,0,0,-3.7634,-3.7609,-3.7577,-3.7507,-3.7481,-3.7361,-3.7382,-3.7371,-3.7332,-3.7332,-3.7255,-3.7244,-3.7213,-3.712,-3.7101,-3.7064,-3.7112,-3.6881,-3.6877,-3.6873,-3.687,-3.6864,-3.6859,0,0,0,0,0,-3.7642,-3.7579,-3.7576,-3.7555,-3.7441,-3.7359,-3.7344,-3.7313,-3.7329,-3.7296,-3.7254,-3.7247,-3.7081,-3.7112,-3.709,-3.705,-3.6883,-3.6878,-3.6873,-3.6873,-3.6865,-3.6859,0,0,0,0,0,0,-3.7642,-3.7569,-3.7565,-3.7477,-3.7425,-3.7357,-3.7313,-3.7305,-3.7245,-3.7247,-3.7208,-3.7191,-3.7107,-3.7069,-3.7105,-3.6963,-3.6983,-3.6974,-3.699,-3.6983,-3.6977,-3.6987,-3.7106,0,0,0,0,0,-3.7632,-3.7575,-3.7513,-3.7442,-3.7416,-3.737,-3.7333,-3.7314,-3.7257,-3.7234,-3.7186,-3.7128,-3.7064,-3.7021,-3.6958,-3.6866,-3.6848,-3.6827,-3.6822,-3.6818,-3.6809,-3.6759,-3.6749,-3.6855,-3.6855,-3.6855,0,0,-3.761,-3.7563,-3.7529,-3.7441,-3.7398,-3.7338,-3.7351,-3.7286,-3.724,-3.7222,-3.714,-3.7103,-3.7036,-3.6947,-3.6905,-3.6913,-3.6777,-3.6811,-3.6808,-3.6802,-3.6753,-3.6743,-3.6734,-3.6851,-3.6852,-3.6852,0,0,-3.754,-3.7499,-3.7436,-3.7394,-3.7331,-3.7301,-3.7286,-3.722,-3.7196,-3.7113,-3.7099,-3.7043,-3.6932,-3.6886,-3.6847,-3.6764,-3.6754,-3.6744,-3.6713,-3.6665,-3.6656,-3.6649,-3.6619,-3.6608,-3.6736,-3.6736,-3.6736,0,-3.7519,-3.7431,-3.7403,-3.734,-3.7302,-3.7288,-3.7223,-3.7183,-3.71,-3.7073,-3.7085,-3.6947,-3.6901,-3.6802,-3.6782,-3.6751,-3.6732,-3.6751,-3.666,-3.6652,-3.6645,-3.6616,-3.6605,-3.6735,-3.6735,-3.6735,-3.6735,0,-3.7409,-3.7348,-3.7304,-3.723,-3.7187,-3.7122,-3.7084,-3.7043,-3.7028,-3.6997,-3.6913,-3.6858,-3.6784,-3.6759,-3.6742,-3.6658,-3.6665,-3.6669,-3.6688,-3.6634,-3.6606,-3.6595,-3.6734,-3.6734,-3.6734,-3.6735,0,0,-3.7331,-3.7246,-3.723,-3.7198,-3.7129,-3.708,-3.7015,-3.6947,-3.6912,-3.6857,-3.6801,-3.6709,-3.6714,-3.6671,-3.6649,-3.6606,-3.6544,-3.6615,-3.6613,-3.6604,-3.6448,-3.6445,-3.6432,-3.6539,-3.6537,-3.6535,-3.6453,0,-3.7252,-3.714,-3.7115,-3.7018,-3.6961,-3.6949,-3.6892,-3.6843,-3.6813,-3.6758,-3.6723,-3.6659,-3.6669,-3.6644,-3.6601,-3.6561,-3.6512,-3.6567,-3.6484,-3.6481,-3.6501,-3.6418,-3.6413,-3.6339,-3.6442,-3.644,-3.6439,0,-3.7144,-3.7091,-3.699,-3.6931,-3.6906,-3.6856,-3.6793,-3.6742,-3.6685,-3.6666,-3.662,-3.6604,-3.6535,-3.656,-3.6463,-3.6501,-3.6466,-3.6442,-3.6438,-3.6427,-3.6456,-3.6404,-3.6315,-3.6303,-3.6421,-3.6423,-3.6424,0,-3.7098,-3.7001,-3.6928,-3.69,-3.6829,-3.6795,-3.6763,-3.671,-3.6671,-3.6615,-3.6589,-3.6524,-3.6488,-3.6438,-3.6404,-3.6425,-3.631,-3.6332,-3.6291,-3.6292,-3.6265,-3.6267,-3.6168,-3.6245,-3.6245,-3.6245,-3.6245,0,-3.7011,-3.6949,-3.6906,-3.6861,-3.6791,-3.6763,-3.6694,-3.6662,-3.6615,-3.6562,-3.6547,-3.6497,-3.6456,-3.64,-3.6373,-3.6298,-3.6281,-3.6262,-3.6256,-3.6263,-3.6266,-3.6238,-3.6242,-3.6242,-3.6243,-3.6243,-3.6244,0,-3.6946,-3.6915,-3.6835,-3.6777,-3.6761,-3.6712,-3.6661,-3.6616,-3.6587,-3.6521,-3.6503,-3.6456,-3.639,-3.6352,-3.6267,-3.6249,-3.6165,-3.6161,-3.6185,-3.6182,-3.6143,-3.6147,-3.6022,-3.6004,-3.6094,-3.6093,-3.6092,0,-3.6893,-3.6846,-3.6784,-3.675,-3.6719,-3.6663,-3.6625,-3.6596,-3.6556,-3.6491,-3.6454,-3.6388,-3.6333,-3.6228,-3.6184,-3.612,-3.6113,-3.6074,-3.6103,-3.6113,-3.6112,-3.6115,-3.611,-3.6068,-3.6068,-3.6067,-3.6066,0,-3.6801,-3.6789,-3.6737,-3.668,-3.6636,-3.6588,-3.6541,-3.6512,-3.6475,-3.6431,-3.6366,-3.6324,-3.6241,-3.6175,-3.6108,-3.6072,-3.6062,-3.6059,-3.6045,-3.6052,-3.6068,-3.6059,-3.6171,-3.6061,-3.6061,-3.6062,-3.6062,-3.6062,-3.674,-3.6698,-3.665,-3.6592,-3.6555,-3.6511,-3.6467,-3.6435,-3.6381,-3.6313,-3.6299,-3.6229,-3.6176,-3.6085,-3.6049,-3.5993,-3.6,-3.5981,-3.5976,-3.5971,-3.597,-3.6079,-3.5981,-3.5981,-3.5981,-3.5981,-3.5981,0,-3.6647,-3.6617,-3.6564,-3.6501,-3.6456,-3.6456,-3.6404,-3.6365,-3.6306,-3.6258,-3.6207,-3.6132,-3.6069,-3.6023,-3.5958,-3.5922,-3.5916,-3.5906,-3.5907,-3.59,-3.5968,-3.5986,-3.5912,-3.5912,-3.5912,-3.5912,-3.5912,-3.5912,-3.6593,-3.6524,-3.6506,-3.6418,-3.6386,-3.6322,-3.6292,-3.6252,-3.6215,-3.6134,-3.6083,-3.6055,-3.6007,-3.594,-3.5882,-3.5869,-3.5846,-3.5836,-3.5823,-3.5887,-3.5895,-3.5902,-3.5918,-3.5832,-3.5832,-3.576,-3.5759,-3.5759]}]]